GW4841 Weather Reports


Display with metric or nautical units.
time (UTC)temp
F
wind
direction
speed
MPH
gust
MPH
rain 1hr
in
rain 24hr
in
rain mn
in
humidity
%
barometer
mb
20260505124642 84 245 4.0 11.0 0.00 0.00 0.00 73 1018.1
20260505124139 83 43 1.0 7.0 0.00 0.00 0.00 75 1018.2
20260505123635 83 29 0.0 2.0 0.00 0.00 0.00 76 1018.3
20260505123132 83 232 1.0 2.0 0.00 0.00 0.00 77 1018.3
20260505122628 83 170 1.0 4.0 0.00 0.00 0.00 77 1018.2
20260505122126 84 165 4.0 4.0 0.00 0.00 0.00 76 1018.1
20260505121622 82 35 0.0 2.0 0.00 0.00 0.00 78 1018.1
20260505121119 82 204 2.0 6.0 0.00 0.00 0.00 78 1018.1
20260505120615 82 102 1.0 3.0 0.00 0.00 0.00 78 1018.0
20260505120111 81 192 1.0 2.0 0.00 0.00 0.00 80 1018.0
20260505115606 81 125 3.0 4.0 0.00 0.00 0.00 79 1017.9
20260505115103 81 269 1.0 2.0 0.00 0.00 0.00 80 1017.7
20260505114600 80 182 0.0 3.0 0.00 0.00 0.00 82 1017.8
20260505114056 80 111 2.0 3.0 0.00 0.00 0.00 81 1017.9
20260505113553 80 63 3.0 4.0 0.00 0.00 0.00 82 1017.8
20260505113050 79 137 1.0 3.0 0.00 0.00 0.00 82 1017.7
20260505112546 79 30 1.0 3.0 0.00 0.00 0.00 84 1017.8
20260505112045 78 45 2.0 2.0 0.00 0.00 0.00 84 1017.7
20260505111543 78 53 2.0 3.0 0.00 0.00 0.00 85 1017.8
20260505111040 78 47 2.0 2.0 0.00 0.00 0.00 84 1017.7
20260505110531 78 132 1.0 2.0 0.00 0.00 0.00 86 1017.6
20260505102004 75 267 0.0 0.0 0.00 0.00 0.00 91 1017.2
20260505101503 75 268 0.0 0.0 0.00 0.00 0.00 91 1017.1
20260505100958 75 268 0.0 0.0 0.00 0.00 0.00 91 1017.1
20260505100455 75 257 0.0 0.0 0.00 0.00 0.00 91 1017.1
20260505095952 75 250 0.0 1.0 0.00 0.00 0.00 91 1016.9
20260505095448 75 226 0.0 0.0 0.00 0.00 0.00 91 1016.8
20260505094944 75 219 1.0 2.0 0.00 0.00 0.00 91 1016.8
20260505094441 75 235 0.0 0.0 0.00 0.00 0.00 90 1016.8
20260505093937 75 235 0.0 1.0 0.00 0.00 0.00 90 1016.9
20260505093434 75 259 0.0 1.0 0.00 0.00 0.00 90 1016.8
20260505092932 75 176 0.0 0.0 0.00 0.00 0.00 91 1016.7
20260505092429 75 168 0.0 0.0 0.00 0.00 0.00 90 1016.7
20260505091926 75 172 0.0 1.0 0.00 0.00 0.00 90 1016.8
20260505091424 74 168 1.0 1.0 0.00 0.00 0.00 90 1016.8
20260505090922 74 152 0.0 1.0 0.00 0.00 0.00 90 1016.6
20260505090420 74 68 0.0 0.0 0.00 0.00 0.00 90 1016.7
20260505085917 74 70 0.0 1.0 0.00 0.00 0.00 89 1016.6
20260505085415 74 143 0.0 1.0 0.00 0.00 0.00 89 1016.6
20260505084913 74 150 0.0 1.0 0.00 0.00 0.00 89 1016.6
20260505084411 75 119 0.0 1.0 0.00 0.00 0.00 88 1016.5
20260505083909 75 136 0.0 1.0 0.00 0.00 0.00 88 1016.7
20260505083406 75 149 1.0 1.0 0.00 0.00 0.00 89 1016.5
20260505082902 75 166 0.0 1.0 0.00 0.00 0.00 89 1016.5
20260505082357 75 324 0.0 0.0 0.00 0.00 0.00 89 1016.4
20260505081854 75 1 0.0 0.0 0.00 0.00 0.00 89 1016.6
20260505081351 75 0 0.0 0.0 0.00 0.00 0.00 89 1016.5
20260505080848 75 352 0.0 0.0 0.00 0.00 0.00 87 1016.7
20260505080344 76 53 0.0 0.0 0.00 0.00 0.00 88 1016.6
20260505075839 76 53 0.0 0.0 0.00 0.00 0.00 88 1016.6
20260505075337 76 53 0.0 0.0 0.00 0.00 0.00 88 1016.7
20260505074833 76 61 0.0 0.0 0.00 0.00 0.00 88 1016.7
20260505074331 76 62 0.0 0.0 0.00 0.00 0.00 88 1016.6
20260505073828 76 62 0.0 0.0 0.00 0.00 0.00 88 1016.4
20260505073326 76 63 0.0 0.0 0.00 0.00 0.00 87 1016.5
20260505072823 76 23 0.0 0.0 0.00 0.00 0.00 87 1016.5
20260505072319 76 137 0.0 0.0 0.00 0.00 0.00 87 1016.5
20260505071815 76 160 0.0 0.0 0.00 0.00 0.00 86 1016.4
20260505071311 77 117 1.0 1.0 0.00 0.00 0.00 86 1016.2
20260505070810 77 48 0.0 1.0 0.00 0.00 0.00 86 1016.4
20260505070306 76 112 2.0 3.0 0.00 0.00 0.00 86 1016.4
20260505065801 76 123 0.0 0.0 0.00 0.00 0.00 86 1016.5
20260505065258 77 117 0.0 1.0 0.00 0.00 0.00 86 1016.4
20260505064755 77 49 0.0 0.0 0.00 0.00 0.00 86 1016.7
20260505064252 77 39 0.0 0.0 0.00 0.00 0.00 86 1016.6
20260505063750 76 38 0.0 0.0 0.00 0.00 0.00 86 1016.4
20260505063246 76 38 0.0 0.0 0.00 0.00 0.00 86 1016.6
20260505062743 76 38 0.0 0.0 0.00 0.00 0.00 86 1016.6
20260505062240 76 39 0.0 0.0 0.00 0.00 0.00 85 1016.6
20260505061737 76 37 0.0 0.0 0.00 0.00 0.00 85 1016.8
20260505061235 76 37 0.0 0.0 0.00 0.00 0.00 85 1016.6
20260505060732 76 37 0.0 0.0 0.00 0.00 0.00 85 1016.8
20260505060229 77 38 0.0 0.0 0.00 0.00 0.00 85 1016.9
20260505055724 77 37 0.0 1.0 0.00 0.00 0.00 85 1016.9
20260505055221 77 35 0.0 0.0 0.00 0.00 0.00 85 1016.9
20260505054718 77 77 0.0 0.0 0.00 0.00 0.00 85 1017.1
20260505054216 77 69 0.0 0.0 0.00 0.00 0.00 85 1017.1
20260505053714 77 174 0.0 0.0 0.00 0.00 0.00 85 1017.1
20260505053209 77 182 0.0 1.0 0.00 0.00 0.00 84 1017.2
20260505052707 77 177 0.0 0.0 0.00 0.00 0.00 84 1017.2
20260505052203 77 181 0.0 0.0 0.00 0.00 0.00 84 1017.3
20260505051701 77 186 0.0 1.0 0.00 0.00 0.00 84 1017.2
20260505051159 77 216 0.0 0.0 0.00 0.00 0.00 84 1017.3
20260505050656 77 238 0.0 0.0 0.00 0.00 0.00 84 1017.3
20260505050156 77 184 1.0 2.0 0.00 0.00 0.00 84 1017.3
20260505041630 77 159 2.0 3.0 0.00 0.00 0.00 83 1017.7
20260505041128 77 191 2.0 3.0 0.00 0.00 0.00 84 1017.8
20260505040624 78 167 1.0 4.0 0.00 0.00 0.00 84 1017.8
20260505040122 78 163 1.0 3.0 0.00 0.00 0.00 83 1017.8
20260505035618 78 199 1.0 3.0 0.00 0.00 0.00 83 1018.0
20260505035114 78 179 1.0 3.0 0.00 0.00 0.00 83 1018.0
20260505034611 78 246 0.0 1.0 0.00 0.00 0.00 83 1018.0
20260505034108 78 239 0.0 1.0 0.00 0.00 0.00 83 1018.2
20260505033605 78 245 0.0 1.0 0.00 0.00 0.00 83 1018.2
20260505033103 79 154 2.0 2.0 0.00 0.00 0.00 82 1018.3
20260505032601 79 268 0.0 0.0 0.00 0.00 0.00 82 1018.3
20260505032057 79 135 1.0 1.0 0.00 0.00 0.00 82 1018.1
20260505031554 79 119 0.0 2.0 0.00 0.00 0.00 82 1018.2
20260505031050 79 189 0.0 2.0 0.00 0.00 0.00 82 1018.2
20260505030548 79 194 0.0 1.0 0.00 0.00 0.00 82 1018.1
20260505030043 79 155 2.0 3.0 0.00 0.00 0.00 81 1018.3
20260505025539 79 139 1.0 2.0 0.00 0.00 0.00 81 1018.3
20260505025038 79 164 2.0 3.0 0.00 0.00 0.00 81 1018.1
20260505024535 79 190 0.0 2.0 0.00 0.00 0.00 80 1018.5
20260505024032 80 171 1.0 1.0 0.00 0.00 0.00 80 1018.2
20260505023529 80 24 0.0 0.0 0.00 0.00 0.00 80 1018.3
20260505023027 80 1 1.0 3.0 0.00 0.00 0.00 80 1018.1
20260505022524 80 40 0.0 0.0 0.00 0.00 0.00 80 1018.2
20260505022021 80 67 2.0 3.0 0.00 0.00 0.00 80 1018.1
20260505021518 79 113 1.0 2.0 0.00 0.00 0.00 80 1018.0
20260505021009 80 102 2.0 2.0 0.00 0.00 0.00 79 1018.0
20260505020508 80 64 1.0 2.0 0.00 0.00 0.00 79 1017.9
20260505020006 80 38 2.0 3.0 0.00 0.00 0.00 79 1017.9
20260505015503 80 128 2.0 2.0 0.00 0.00 0.00 79 1017.9
20260505015000 80 120 3.0 3.0 0.00 0.00 0.00 79 1018.0
20260505014457 80 100 1.0 3.0 0.00 0.00 0.00 78 1017.8
20260505013954 80 31 0.0 2.0 0.00 0.00 0.00 78 1017.9
20260505013451 80 142 0.0 1.0 0.00 0.00 0.00 77 1017.9
20260505012948 80 106 1.0 3.0 0.00 0.00 0.00 77 1017.8
20260505012446 80 77 2.0 4.0 0.00 0.00 0.00 77 1017.7
20260505011943 80 95 2.0 3.0 0.00 0.00 0.00 76 1017.5
20260505011438 81 55 0.0 2.0 0.00 0.00 0.00 76 1017.5
20260505010936 81 43 0.0 1.0 0.00 0.00 0.00 76 1017.3
20260505010431 81 99 1.0 2.0 0.00 0.00 0.00 75 1017.4
20260505005928 81 59 3.0 3.0 0.00 0.00 0.00 75 1017.5
20260505005425 81 77 1.0 3.0 0.00 0.00 0.00 75 1017.3
20260505004922 81 38 0.0 3.0 0.00 0.00 0.00 74 1017.1
20260505004419 81 57 2.0 3.0 0.00 0.00 0.00 74 1017.2
20260505003915 81 336 0.0 3.0 0.00 0.00 0.00 74 1017.1
20260505003413 81 57 0.0 3.0 0.00 0.00 0.00 74 1017.0
20260505002909 82 47 1.0 2.0 0.00 0.00 0.00 74 1017.0
20260505002405 82 61 1.0 1.0 0.00 0.00 0.00 73 1017.0
20260505001904 82 49 1.0 2.0 0.00 0.00 0.00 73 1017.0
20260505001401 82 17 0.0 3.0 0.00 0.00 0.00 73 1017.0
20260505000858 82 51 2.0 3.0 0.00 0.00 0.00 73 1017.0
20260505000355 82 32 0.0 0.0 0.00 0.00 0.00 73 1017.0
20260504235852 82 58 1.0 3.0 0.00 0.00 0.00 73 1016.8
20260504235349 82 138 2.0 2.0 0.00 0.00 0.00 73 1016.7
20260504234845 82 32 0.0 2.0 0.00 0.00 0.00 73 1016.7
20260504234343 82 26 0.0 4.0 0.00 0.00 0.00 72 1016.8
20260504233840 82 48 2.0 4.0 0.00 0.00 0.00 72 1016.6
20260504233335 83 49 2.0 3.0 0.00 0.00 0.00 72 1016.6
20260504232832 83 50 1.0 4.0 0.00 0.00 0.00 72 1016.8
20260504232329 83 48 3.0 3.0 0.00 0.00 0.00 71 1016.6
20260504231826 83 111 2.0 3.0 0.00 0.00 0.00 70 1016.8
20260504231323 83 36 2.0 3.0 0.00 0.00 0.00 69 1016.6
20260504230819 83 60 0.0 2.0 0.00 0.00 0.00 69 1016.5
20260504230317 83 17 1.0 2.0 0.00 0.00 0.00 69 1016.5
20260504225816 83 42 0.0 2.0 0.00 0.00 0.00 69 1016.3
20260504225311 84 40 3.0 3.0 0.00 0.00 0.00 68 1016.1
20260504224809 84 337 0.0 3.0 0.00 0.00 0.00 68 1016.3
20260504224306 84 34 3.0 4.0 0.00 0.00 0.00 68 1016.2
20260504223802 84 43 3.0 3.0 0.00 0.00 0.00 68 1015.9
20260504223258 84 45 0.0 1.0 0.00 0.00 0.00 67 1016.1
20260504222755 85 166 1.0 6.0 0.00 0.00 0.00 66 1016.1
20260504222251 85 47 1.0 3.0 0.00 0.00 0.00 67 1015.7
20260504221749 85 47 1.0 3.0 0.00 0.00 0.00 66 1015.7
20260504221246 85 48 3.0 6.0 0.00 0.00 0.00 66 1015.5
20260504220743 85 48 0.0 1.0 0.00 0.00 0.00 65 1015.4
20260504220240 86 58 2.0 7.0 0.00 0.00 0.00 64 1015.5
20260504215737 86 106 2.0 8.0 0.00 0.00 0.00 64 1015.4
20260504215234 86 56 1.0 3.0 0.00 0.00 0.00 63 1015.5
20260504214730 86 185 1.0 6.0 0.00 0.00 0.00 63 1015.2
20260504214226 86 122 3.0 6.0 0.00 0.00 0.00 63 1015.2
20260504213723 86 87 4.0 6.0 0.00 0.00 0.00 63 1015.1
20260504213219 87 78 0.0 6.0 0.00 0.00 0.00 61 1015.2
20260504212717 89 258 2.0 3.0 0.00 0.00 0.00 59 1015.0
20260504212214 89 120 1.0 4.0 0.00 0.00 0.00 59 1014.9
20260504211711 88 14 1.0 4.0 0.00 0.00 0.00 61 1015.0
20260504211207 88 51 1.0 4.0 0.00 0.00 0.00 61 1015.0
20260504210704 89 34 2.0 3.0 0.00 0.00 0.00 59 1014.9
20260504210201 88 205 2.0 4.0 0.00 0.00 0.00 60 1015.0
20260504205658 90 112 5.0 9.0 0.00 0.00 0.00 59 1015.0
20260504205155 90 187 0.0 4.0 0.00 0.00 0.00 58 1014.7
20260504204654 89 149 1.0 4.0 0.00 0.00 0.00 59 1014.9
20260504204153 90 317 0.0 10.0 0.00 0.00 0.00 59 1014.8
20260504203651 90 257 2.0 7.0 0.00 0.00 0.00 58 1014.7
20260504203149 90 53 1.0 7.0 0.00 0.00 0.00 59 1014.7
20260504202648 90 154 2.0 4.0 0.00 0.00 0.00 58 1014.6
20260504202146 91 229 2.0 3.0 0.00 0.00 0.00 57 1014.6
20260504201643 91 278 1.0 10.0 0.00 0.00 0.00 57 1014.7
20260504201140 91 30 2.0 6.0 0.00 0.00 0.00 56 1014.6
20260504200637 91 247 3.0 7.0 0.00 0.00 0.00 56 1014.6
20260504200134 91 66 4.0 9.0 0.00 0.00 0.00 56 1014.6
20260504195630 90 177 3.0 4.0 0.00 0.00 0.00 57 1014.7
20260504195126 91 75 5.0 8.0 0.00 0.00 0.00 56 1014.8
20260504194623 92 269 4.0 9.0 0.00 0.00 0.00 54 1014.8
20260504194119 91 168 3.0 7.0 0.00 0.00 0.00 54 1015.0
20260504193615 91 151 2.0 8.0 0.00 0.00 0.00 54 1015.0
20260504193114 89 172 2.0 4.0 0.00 0.00 0.00 56 1014.7
20260504192612 90 89 5.0 10.0 0.00 0.00 0.00 56 1014.9
20260504192110 92 172 2.0 9.0 0.00 0.00 0.00 53 1015.0
20260504191608 93 192 3.0 7.0 0.00 0.00 0.00 51 1015.0
20260504191104 92 286 3.0 3.0 0.00 0.00 0.00 49 1014.9
20260504190600 92 209 3.0 6.0 0.00 0.00 0.00 49 1015.0
20260504190056 92 154 2.0 16.0 0.00 0.00 0.00 50 1014.8
20260504185553 92 80 5.0 7.0 0.00 0.00 0.00 50 1015.0
20260504185050 92 80 2.0 3.0 0.00 0.00 0.00 49 1015.1
20260504184545 92 310 2.0 6.0 0.00 0.00 0.00 49 1015.3
20260504184041 92 211 1.0 9.0 0.00 0.00 0.00 49 1015.3
20260504183538 92 279 0.0 7.0 0.00 0.00 0.00 49 1015.5
20260504183036 92 201 4.0 8.0 0.00 0.00 0.00 49 1015.5
20260504182532 91 231 5.0 7.0 0.00 0.00 0.00 50 1015.4
20260504182030 91 230 2.0 7.0 0.00 0.00 0.00 51 1015.5
20260504181527 91 181 4.0 9.0 0.00 0.00 0.00 51 1015.4
20260504181025 91 195 4.0 7.0 0.00 0.00 0.00 51 1015.7
20260504180524 91 150 4.0 8.0 0.00 0.00 0.00 50 1015.7
20260504180022 91 202 6.0 10.0 0.00 0.00 0.00 50 1015.7
20260504175519 91 208 2.0 6.0 0.00 0.00 0.00 52 1015.8
20260504175016 91 209 6.0 8.0 0.00 0.00 0.00 51 1015.7
20260504174514 92 183 1.0 9.0 0.00 0.00 0.00 49 1015.8
20260504174011 92 227 1.0 7.0 0.00 0.00 0.00 49 1016.0
20260504173507 91 117 4.0 11.0 0.00 0.00 0.00 49 1015.9
20260504173005 92 78 3.0 10.0 0.00 0.00 0.00 48 1016.0
20260504172501 92 216 2.0 6.0 0.00 0.00 0.00 48 1016.1
20260504171957 92 311 3.0 8.0 0.00 0.00 0.00 48 1016.0
20260504171454 91 222 2.0 6.0 0.00 0.00 0.00 50 1016.3
20260504170951 91 196 4.0 9.0 0.00 0.00 0.00 47 1016.3
20260504170447 91 202 7.0 9.0 0.00 0.00 0.00 48 1016.5
20260504160407 89 194 2.0 8.0 0.00 0.00 0.00 52 1017.2
20260504150831 88 158 2.0 6.0 0.00 0.00 0.00 58 1017.6
20260504150328 88 232 4.0 8.0 0.00 0.00 0.00 58 1017.6
20260504141258 86 198 1.0 13.0 0.00 0.00 0.00 65 1017.4
20260504140754 86 207 2.0 8.0 0.00 0.00 0.00 65 1017.6
20260504140250 86 200 5.0 6.0 0.00 0.00 0.00 65 1017.5
20260504130719 84 43 3.0 6.0 0.00 0.00 0.00 70 1017.8
20260504130214 84 258 2.0 8.0 0.00 0.00 0.00 70 1017.6